Tracking 31023 objects as of 19-Jul-2025
HD Live streaming from Space Station
objects crossing your sky now

DELTA 1 DEB

Track DELTA 1 DEB now!
10-day predictions


NORAD ID: 7162
Int'l Code: 1973-086EA
Perigee: 1,253.2 km
Apogee: 1,401.9 km
Inclination: 101.5 °
Period: 112.0 minutes
Semi major axis: 7698 km
RCS: 0.0651 m2 (small)
Launch date: November 6, 1973
Source: United States (US)
Launch site: AIR FORCE WESTERN TEST RANGE (AFWTR)

Note: This is SATELLITE DEBRIS
Your satellite tracking list
Your tracking list is empty




NASA's NSSDC Master Catalog

Two Line Element Set (TLE):
1 07162U 73086EA  25199.86847565  .00000580  00000-0  25134-2 0  9995
2 07162 101.5466  45.1720 0096600  94.9551 285.4359 12.85259782386040
Source of the keplerian elements: AFSPC